TimeEST,TemperatureF,Dew PointF,Humidity,Sea Level PressureIn,VisibilityMPH,Wind Direction,Wind SpeedMPH,Gust SpeedMPH,PrecipitationIn,Events,Conditions,WindDirDegrees,DateUTC
12:15 AM,36.3,22.3,57,30.41,10.0,North,6.9,-,N/A,,Clear,350,2013-11-13 05:15:00
12:35 AM,36.1,19.9,52,30.41,10.0,North,6.9,-,N/A,,Clear,350,2013-11-13 05:35:00
12:55 AM,35.6,19.0,51,30.41,10.0,North,6.9,-,N/A,,Clear,350,2013-11-13 05:55:00
1:15 AM,34.9,19.8,54,30.42,10.0,North,5.8,-,N/A,,Clear,350,2013-11-13 06:15:00
1:35 AM,34.3,18.7,53,30.41,10.0,North,9.2,-,N/A,,Clear,360,2013-11-13 06:35:00
1:55 AM,34.5,17.6,50,30.42,10.0,North,6.9,-,N/A,,Clear,360,2013-11-13 06:55:00
2:15 AM,33.8,18.3,53,30.43,10.0,NNW,6.9,-,N/A,,Clear,340,2013-11-13 07:15:00
2:35 AM,32.9,19.0,57,30.43,10.0,NNW,4.6,-,N/A,,Clear,340,2013-11-13 07:35:00
2:55 AM,32.2,19.0,58,30.43,10.0,NNW,3.5,-,N/A,,Clear,330,2013-11-13 07:55:00
3:15 AM,32.0,18.7,58,30.43,10.0,Calm,Calm,-,N/A,,Clear,0,2013-11-13 08:15:00
3:35 AM,31.5,19.0,60,30.43,10.0,NNW,3.5,-,N/A,,Clear,340,2013-11-13 08:35:00
3:55 AM,31.6,17.8,57,30.44,10.0,NNW,4.6,-,N/A,,Clear,330,2013-11-13 08:55:00
4:15 AM,31.6,17.4,56,30.44,10.0,NNW,3.5,-,N/A,,Clear,330,2013-11-13 09:15:00
4:35 AM,31.1,17.6,57,30.45,10.0,NNW,4.6,-,N/A,,Clear,340,2013-11-13 09:35:00
4:55 AM,31.1,17.2,57,30.45,10.0,NNW,3.5,-,N/A,,Clear,330,2013-11-13 09:55:00
5:15 AM,30.6,17.6,59,30.45,10.0,NW,3.5,-,N/A,,Clear,320,2013-11-13 10:15:00
5:35 AM,29.8,18.5,63,30.46,10.0,NNW,3.5,-,N/A,,Clear,330,2013-11-13 10:35:00
5:55 AM,29.7,18.5,63,30.47,10.0,Calm,Calm,-,N/A,,Clear,0,2013-11-13 10:55:00
6:15 AM,29.3,18.7,65,30.48,10.0,NW,3.5,-,N/A,,Clear,320,2013-11-13 11:15:00
6:35 AM,28.9,19.6,68,30.48,10.0,Calm,Calm,-,N/A,,Clear,0,2013-11-13 11:35:00
6:55 AM,29.1,19.0,66,30.49,10.0,Calm,Calm,-,N/A,,Clear,0,2013-11-13 11:55:00
7:15 AM,29.8,19.0,64,30.49,10.0,Calm,Calm,-,N/A,,Clear,0,2013-11-13 12:15:00
7:35 AM,31.1,19.6,62,30.50,10.0,Calm,Calm,-,N/A,,Clear,0,2013-11-13 12:35:00
7:55 AM,32.4,19.0,58,30.51,10.0,NNW,3.5,-,N/A,,Clear,330,2013-11-13 12:55:00
8:15 AM,33.8,19.0,55,30.52,10.0,NNW,4.6,-,N/A,,Clear,330,2013-11-13 13:15:00
8:35 AM,35.6,19.8,53,30.53,10.0,North,4.6,-,N/A,,Clear,350,2013-11-13 13:35:00
8:55 AM,36.7,19.9,51,-9999,10.0,North,10.4,-,N/A,,Clear,360,2013-11-13 13:55:00
9:15 AM,37.6,20.7,51,30.53,10.0,North,6.9,-,N/A,,Clear,350,2013-11-13 14:15:00
9:35 AM,38.3,19.4,47,30.53,10.0,North,8.1,17.3,N/A,,Clear,360,2013-11-13 14:35:00
9:55 AM,39.6,19.9,45,30.53,10.0,North,8.1,17.3,N/A,,Clear,10,2013-11-13 14:55:00
10:15 AM,39.9,19.8,44,30.53,10.0,NNE,5.8,-,N/A,,Clear,20,2013-11-13 15:15:00
10:35 AM,40.6,17.6,39,30.53,10.0,NNE,8.1,-,N/A,,Clear,20,2013-11-13 15:35:00
10:55 AM,41.5,17.2,38,30.52,10.0,North,9.2,-,N/A,,Clear,10,2013-11-13 15:55:00
11:15 AM,42.1,16.3,35,30.52,10.0,North,10.4,-,N/A,,Clear,10,2013-11-13 16:15:00
11:35 AM,42.3,16.9,36,30.51,10.0,North,10.4,16.1,N/A,,Clear,360,2013-11-13 16:35:00
11:55 AM,43.0,17.1,35,30.50,10.0,North,6.9,16.1,N/A,,Clear,360,2013-11-13 16:55:00
12:15 PM,42.6,16.2,34,30.49,10.0,North,4.6,-,N/A,,Clear,350,2013-11-13 17:15:00
12:35 PM,43.5,15.3,32,30.49,10.0,North,5.8,-,N/A,,Clear,360,2013-11-13 17:35:00
12:55 PM,43.7,15.4,32,30.48,10.0,NNW,5.8,-,N/A,,Clear,330,2013-11-13 17:55:00
1:15 PM,44.4,14.9,30,30.47,10.0,North,6.9,16.1,N/A,,Clear,350,2013-11-13 18:15:00
1:35 PM,45.0,15.4,31,30.47,10.0,NNE,4.6,-,N/A,,Clear,20,2013-11-13 18:35:00
1:55 PM,45.3,14.7,29,30.47,10.0,North,4.6,-,N/A,,Clear,350,2013-11-13 18:55:00
2:15 PM,45.7,14.7,29,30.46,10.0,North,6.9,-,N/A,,Clear,350,2013-11-13 19:15:00
2:35 PM,45.9,14.9,29,30.46,10.0,North,6.9,-,N/A,,Clear,350,2013-11-13 19:35:00
2:55 PM,46.4,15.4,29,30.46,10.0,NNW,4.6,-,N/A,,Clear,330,2013-11-13 19:55:00
3:15 PM,45.9,14.7,29,30.46,10.0,NNW,5.8,-,N/A,,Clear,330,2013-11-13 20:15:00
3:35 PM,45.5,14.4,29,30.46,10.0,Calm,Calm,-,N/A,,Clear,0,2013-11-13 20:35:00
3:55 PM,45.9,14.9,29,30.47,10.0,NNW,4.6,-,N/A,,Clear,330,2013-11-13 20:55:00
4:15 PM,45.7,15.8,30,30.46,10.0,North,4.6,-,N/A,,Clear,360,2013-11-13 21:15:00
4:35 PM,44.6,15.4,31,30.47,10.0,NNW,3.5,-,N/A,,Clear,330,2013-11-13 21:35:00
4:55 PM,43.0,18.5,37,30.47,10.0,Calm,Calm,-,N/A,,Clear,0,2013-11-13 21:55:00
5:15 PM,41.0,19.6,42,30.48,10.0,Calm,Calm,-,N/A,,Clear,0,2013-11-13 22:15:00
5:35 PM,39.4,21.4,49,30.48,10.0,Calm,Calm,-,N/A,,Clear,0,2013-11-13 22:35:00
5:55 PM,36.9,22.8,57,30.49,10.0,Calm,Calm,-,N/A,,Clear,0,2013-11-13 22:55:00
6:15 PM,36.9,22.5,56,30.50,10.0,Calm,Calm,-,N/A,,Clear,0,2013-11-13 23:15:00
6:35 PM,37.4,20.1,50,30.50,10.0,Calm,Calm,-,N/A,,Clear,0,2013-11-13 23:35:00
6:55 PM,36.5,21.7,55,30.50,10.0,Calm,Calm,-,N/A,,Clear,0,2013-11-13 23:55:00
7:15 PM,33.4,24.4,70,30.50,10.0,Calm,Calm,-,N/A,,Clear,0,2013-11-14 00:15:00
7:35 PM,33.4,23.4,67,30.51,10.0,Calm,Calm,-,N/A,,Clear,0,2013-11-14 00:35:00
7:55 PM,32.5,23.7,70,30.51,10.0,Calm,Calm,-,N/A,,Clear,0,2013-11-14 00:55:00
8:15 PM,32.0,23.9,72,30.50,10.0,Calm,Calm,-,N/A,,Clear,0,2013-11-14 01:15:00
8:35 PM,31.8,23.5,71,30.50,10.0,Calm,Calm,-,N/A,,Clear,0,2013-11-14 01:35:00
8:55 PM,32.0,23.7,71,30.50,10.0,Calm,Calm,-,N/A,,Clear,0,2013-11-14 01:55:00
9:15 PM,31.8,24.6,75,30.51,10.0,Calm,Calm,-,N/A,,Clear,0,2013-11-14 02:15:00
9:35 PM,30.6,24.4,78,30.50,10.0,Calm,Calm,-,N/A,,Clear,0,2013-11-14 02:35:00
9:55 PM,29.5,24.8,83,30.50,10.0,Calm,Calm,-,N/A,,Clear,0,2013-11-14 02:55:00
10:15 PM,29.3,25.3,85,30.50,10.0,Calm,Calm,-,N/A,,Clear,0,2013-11-14 03:15:00
10:35 PM,29.1,25.2,85,30.49,10.0,Calm,Calm,-,N/A,,Clear,0,2013-11-14 03:35:00
10:55 PM,28.9,25.5,87,30.49,10.0,Calm,Calm,-,N/A,,Clear,0,2013-11-14 03:55:00
11:15 PM,29.1,25.2,85,30.49,10.0,Calm,Calm,-,N/A,,Clear,0,2013-11-14 04:15:00
11:35 PM,28.0,26.4,94,30.48,10.0,Calm,Calm,-,N/A,,Clear,0,2013-11-14 04:35:00
11:55 PM,28.0,25.7,91,30.48,10.0,NNW,3.5,-,N/A,,Clear,330,2013-11-14 04:55:00